Stations météo

réclame
Mon MeteoGroup
Trieste, Italie (16110): Température de l'air & dewpoint: 11.07.2018 13:00:00 - 17.07.2018 13:00:00 (CEST)Trieste, Italie (16110): Vitesse du vent: 11.07.2018 13:00:00 - 17.07.2018 13:00:00 (CEST)Trieste, Italie (16110): Direction du vent: 11.07.2018 13:00:00 - 17.07.2018 13:00:00 (CEST)Trieste, Italie (16110): reduced air pressure: 11.07.2018 13:00:00 - 17.07.2018 13:00:00 (CEST)Trieste, Italie (16110): visibility: 11.07.2018 13:00:00 - 17.07.2018 13:00:00 (CEST)Trieste, Italie (16110): Ensoleillement: 11.07.2018 13:00:00 - 17.07.2018 13:00:00 (CEST)
Date & Time tt [°C] td [°C] ff [km/h] ff [knt] dd ppp [hPa] vv [km] sd [min]
17.07.2018 13:00:00 27,4 21,4 5 3 W 1010,6 20 60
17.07.2018 12:00:00 27,0 21,1 9 5 W 1010,6 20 60
17.07.2018 11:00:00 26,0 20,3 8 4 W 1010,5 20 60
17.07.2018 10:00:00 25,0 19,2 4 2 WNW 1010,2 20 60
17.07.2018 09:00:00 25,0 19,6 5 3 WSW 1010,3 20 60
17.07.2018 08:00:00 23,0 18,1 2 1 NE 1010,2 20 54
17.07.2018 07:00:00 21,2 18,2 2 1 ENE 1010,1 20 0
17.07.2018 06:00:00 21,2 18,0 4 2 NE 1009,8 20 -
17.07.2018 05:00:00 21,0 18,6 8 4 NE 1009,4 20 -
17.07.2018 04:00:00 21,2 19,7 2 1 NE 1009,4 20 -
17.07.2018 03:00:00 21,6 20,6 2 1 E 1010,0 20 -
17.07.2018 02:00:00 21,8 19,9 8 4 NE 1009,8 20 -
17.07.2018 01:00:00 21,8 20,3 8 4 NE 1009,7 20 -
17.07.2018 00:00:00 21,8 20,8 5 3 NE 1010,1 20 -
16.07.2018 23:00:00 21,6 20,8 4 2 ENE 1010,0 20 -
16.07.2018 22:00:00 23,8 20,7 5 3 NE 1009,9 20 -
16.07.2018 21:00:00 25,2 20,7 2 1 NNE 1010,2 20 0
16.07.2018 20:00:00 25,8 20,6 2 1 WNW 1010,3 20 0
16.07.2018 19:00:00 26,0 21,0 0 0 N 1010,2 20 0
16.07.2018 18:00:00 26,8 20,6 5 3 W 1010,3 20 0
16.07.2018 17:00:00 26,8 19,9 2 1 NW 1010,5 20 0
16.07.2018 16:00:00 27,0 20,1 2 1 NW 1010,9 20 0
16.07.2018 15:00:00 28,2 20,7 5 3 W 1011,0 20 60
16.07.2018 14:00:00 28,2 19,7 5 3 WSW 1011,8 22 42
16.07.2018 13:00:00 27,6 20,4 8 4 W 1012,3 22 48
16.07.2018 12:00:00 27,8 20,6 5 3 W 1012,2 22 60
16.07.2018 11:00:00 27,0 20,1 5 3 WSW 1012,4 20 48
16.07.2018 10:00:00 25,8 19,2 5 3 WSW 1012,4 25 36
16.07.2018 09:00:00 25,2 17,9 4 2 ESE 1012,2 30 18
16.07.2018 08:00:00 23,4 18,1 0 0 N 1011,9 20 0
16.07.2018 07:00:00 23,6 15,9 2 1 S 1011,9 20 -
16.07.2018 06:00:00 23,2 15,5 4 2 NE 1012,0 10 -
16.07.2018 05:00:00 22,8 15,7 13 7 ENE 1011,8 10 -
16.07.2018 04:00:00 22,8 15,9 4 2 N 1012,5 10 -
16.07.2018 03:00:00 23,0 16,1 8 4 E 1012,8 10 -
16.07.2018 02:00:00 23,2 16,3 8 4 E 1013,5 10 -
16.07.2018 01:00:00 23,8 17,1 9 5 NE 1013,8 10 -
16.07.2018 00:00:00 24,2 16,7 11 6 NE 1013,2 10 -
15.07.2018 23:00:00 24,2 17,5 18 10 ENE 1012,2 10 -
15.07.2018 22:00:00 24,4 17,4 18 10 NE 1011,9 20 -
15.07.2018 21:00:00 25,2 17,7 18 10 NE 1012,2 20 -
15.07.2018 20:00:00 26,6 17,9 13 7 ENE 1012,4 20 30
15.07.2018 19:00:00 28,0 18,1 11 6 NE 1012,3 20 48
15.07.2018 18:00:00 29,2 19,2 8 4 E 1012,3 20 42
15.07.2018 17:00:00 29,4 22,9 4 2 WSW 1012,6 20 48
15.07.2018 16:00:00 29,4 20,3 4 2 SSW 1012,9 20 60
15.07.2018 15:00:00 27,8 22,5 4 2 WNW 1013,4 20 60
15.07.2018 14:00:00 29,6 21,6 5 3 SSW 1013,4 20 36
15.07.2018 13:00:00 26,4 21,8 5 3 WNW 1013,9 20 6
15.07.2018 12:00:00 28,0 18,7 5 3 SSW 1013,8 20 6
15.07.2018 11:00:00 26,0 19,4 8 4 S 1013,8 20 0
15.07.2018 10:00:00 25,2 19,6 4 2 S 1014,0 20 0
15.07.2018 09:00:00 24,0 20,9 4 2 W 1014,0 10 0
15.07.2018 08:00:00 24,2 18,4 0 0 N 1014,0 20 0
15.07.2018 07:00:00 24,0 18,2 0 0 N 1013,5 20 -
15.07.2018 06:00:00 23,8 17,1 4 2 ENE 1013,8 20 -
15.07.2018 05:00:00 24,2 16,5 8 4 NE 1013,5 20 -
15.07.2018 04:00:00 24,2 17,5 2 1 NE 1013,7 20 -
15.07.2018 03:00:00 23,8 18,7 2 1 NE 1014,2 20 -
15.07.2018 02:00:00 24,4 19,7 2 1 NE 1014,3 20 -
15.07.2018 01:00:00 25,0 18,2 4 2 N 1014,5 20 -
15.07.2018 00:00:00 25,0 18,4 2 1 NE 1015,0 20 -
14.07.2018 23:00:00 24,8 18,7 0 0 N 1015,5 20 -
14.07.2018 22:00:00 25,0 19,2 0 0 N 1015,3 20 -
14.07.2018 21:00:00 25,8 18,0 0 0 N 1014,2 20 0
14.07.2018 20:00:00 26,8 21,1 0 0 N 1014,2 20 0
14.07.2018 19:00:00 27,8 21,8 0 0 N 1014,4 20 18
14.07.2018 18:00:00 28,0 21,1 2 1 W 1015,7 20 60
14.07.2018 17:00:00 29,0 21,0 2 1 W 1015,1 20 60
14.07.2018 16:00:00 28,0 22,7 2 1 W 1015,4 20 60
14.07.2018 15:00:00 27,4 21,2 4 2 WNW 1015,9 20 60
14.07.2018 14:00:00 27,6 20,7 2 1 W 1016,1 20 60
14.07.2018 13:00:00 27,0 19,9 2 1 WNW 1016,5 20 60
14.07.2018 12:00:00 27,0 21,3 2 1 W 1016,9 20 60
14.07.2018 11:00:00 26,4 21,4 2 1 W 1017,2 20 60
14.07.2018 10:00:00 26,0 21,0 2 1 W 1017,4 20 60
14.07.2018 09:00:00 25,2 20,2 0 0 N 1017,4 20 60
14.07.2018 08:00:00 24,2 19,7 0 0 N 1017,2 20 36
14.07.2018 07:00:00 22,4 19,4 0 0 N 1016,9 20 0
14.07.2018 06:00:00 22,0 18,8 0 0 N 1016,9 20 -
14.07.2018 05:00:00 21,8 18,8 0 0 N 1016,9 20 -
14.07.2018 04:00:00 21,4 17,4 2 1 NE 1016,7 20 -
14.07.2018 03:00:00 21,6 19,2 0 0 N 1016,7 20 -
14.07.2018 02:00:00 21,6 18,0 0 0 N 1016,7 20 -
14.07.2018 01:00:00 23,6 19,3 4 2 NE 1016,8 20 -
14.07.2018 00:00:00 23,6 19,3 4 2 NE 1016,8 20 -
13.07.2018 23:00:00 23,4 18,5 4 2 NE 1016,9 20 -
13.07.2018 22:00:00 23,4 19,4 4 2 NE 1016,5 20 -
13.07.2018 21:00:00 24,4 21,9 2 1 SW 1015,5 20 24
13.07.2018 20:00:00 26,0 21,9 0 0 N 1015,7 20 60
13.07.2018 19:00:00 27,0 22,4 2 1 NNE 1016,1 20 60
13.07.2018 18:00:00 26,6 21,8 0 0 N 1016,2 20 60
13.07.2018 17:00:00 27,2 21,3 5 3 W 1016,3 20 60
13.07.2018 16:00:00 28,0 22,0 8 4 W 1016,3 20 60
13.07.2018 15:00:00 26,0 21,7 4 2 WNW 1016,4 20 60
13.07.2018 14:00:00 25,4 21,1 4 2 SSE 1016,4 20 60
13.07.2018 13:00:00 28,4 15,0 5 3 S 1016,7 20 60
13.07.2018 12:00:00 26,8 16,1 5 3 ENE 1016,7 20 60
13.07.2018 11:00:00 24,8 17,3 16 9 N 1016,6 20 60
13.07.2018 10:00:00 23,6 16,9 18 10 NE 1016,3 20 30
13.07.2018 09:00:00 22,0 16,9 16 9 NE 1016,1 20 0
13.07.2018 08:00:00 21,6 18,0 15 8 ENE 1015,7 20 0
13.07.2018 07:00:00 22,0 16,7 13 7 NE 1015,8 20 0
13.07.2018 06:00:00 22,6 18,2 9 5 NNE 1015,4 20 -
13.07.2018 05:00:00 21,8 19,2 2 1 NE 1015,6 20 -
13.07.2018 04:00:00 22,0 19,4 2 1 NE 1015,8 20 -
13.07.2018 03:00:00 22,0 19,4 0 0 N 1015,6 20 -
13.07.2018 02:00:00 22,0 19,4 0 0 N 1015,4 20 -
13.07.2018 01:00:00 22,6 18,8 0 0 N 1015,3 20 -
13.07.2018 00:00:00 22,6 18,8 2 1 NE 1015,2 20 -
12.07.2018 23:00:00 23,0 18,1 5 3 ENE 1015,0 20 -
12.07.2018 22:00:00 23,2 20,0 0 0 N 1014,7 20 -
12.07.2018 21:00:00 24,4 21,7 0 0 N 1014,5 20 -
12.07.2018 20:00:00 25,0 21,5 2 1 WNW 1014,2 20 12
12.07.2018 19:00:00 25,0 20,9 2 1 WNW 1014,1 20 54
12.07.2018 18:00:00 26,0 21,0 4 2 WNW 1014,2 20 60
12.07.2018 17:00:00 27,0 21,1 8 4 W 1014,4 20 60
12.07.2018 16:00:00 27,0 20,8 5 3 W 1014,6 20 60
12.07.2018 15:00:00 27,2 19,0 5 3 WSW 1014,3 20 60
12.07.2018 14:00:00 26,2 19,8 4 2 WNW 1014,7 20 60
12.07.2018 13:00:00 26,0 19,7 4 2 WNW 1014,7 20 54
12.07.2018 12:00:00 27,2 19,0 4 2 WSW 1014,6 20 54
12.07.2018 11:00:00 26,2 17,3 4 2 ENE 1014,4 20 60
12.07.2018 10:00:00 24,0 16,8 8 4 NE 1014,3 20 42
12.07.2018 09:00:00 22,0 15,8 15 8 NE 1014,4 20 36
12.07.2018 08:00:00 20,2 15,2 15 8 NE 1014,3 22 36
12.07.2018 07:00:00 19,8 15,0 15 8 NE 1014,0 25 -
12.07.2018 06:00:00 19,0 14,7 18 10 NE 1013,8 20 -
12.07.2018 05:00:00 18,8 14,9 22 12 NE 1013,8 20 -
12.07.2018 04:00:00 18,8 14,5 5 3 NE 1013,8 20 -
12.07.2018 03:00:00 19,8 15,0 16 9 ENE 1013,8 20 -
12.07.2018 02:00:00 20,0 15,9 16 9 ENE 1013,6 20 -
12.07.2018 01:00:00 20,2 16,2 21 11 NE 1013,6 20 -
12.07.2018 00:00:00 20,8 16,4 16 9 ENE 1013,4 20 -
11.07.2018 23:00:00 21,4 16,8 11 6 ENE 1013,4 20 -
11.07.2018 22:00:00 22,0 17,4 8 4 ENE 1013,1 20 -
11.07.2018 21:00:00 21,8 17,4 8 4 ENE 1012,7 20 0
11.07.2018 20:00:00 23,2 18,1 9 5 NE 1012,2 20 54
11.07.2018 19:00:00 24,0 18,2 5 3 ESE 1011,7 20 24
11.07.2018 18:00:00 23,0 18,5 8 4 ESE 1011,6 20 6
11.07.2018 17:00:00 22,0 18,0 11 6 E 1011,6 20 0
11.07.2018 16:00:00 18,0 13,5 11 6 ENE 1011,7 20 0
11.07.2018 15:00:00 22,8 17,9 11 6 NE 1011,8 20 0
11.07.2018 14:00:00 24,8 17,8 11 6 ENE 1011,6 22 30
11.07.2018 13:00:00 23,8 17,5 9 5 ENE 1011,8 22 0

tt = Température de l'air
td = dewpoint
ff = Vitesse du vent
dd = Direction du vent
ppp = reduced air pressure
vv = visibility
sd = Ensoleillement

stations d'obs. à proximité